Location: Bukit Lungun
(2.6833°N, 113.9667°E)
Time: 13:36:25
(UTC+00:00)

BREEZE-M (TANK) - Pass Details

Date: 02 March 2021
Orbit: 275 x 17572 km, 49.6° (Epoch: 20 April)

Event Time Altitude Azimuth Distance (km) Brightness Sun altitude
Exits shadow 21:27:52 25° 326° (NW) 1,075 3.6 -17.3°
Maximum altitude 21:29:44 85° 54° (NE) 721 3.0 -16.8°
Drops below altitude 10° 21:39:21 10° 142° (SE) 4,887 8.0 -14.4°
Sets 21:47:04 0° 142° (SE) 8,053 9.1 -12.5°
